Regional Weather Roundup
Issued by NWS

Home | Current Version | Previous Version | Graphics & Text | Print | Product List | Glossary On
Versions: 1 2 3 4 5 6 7 8 9 10 11 12 13 14 15 16 17 18 19 20 21 22 23 24 25 26 27 28 29 30 31 32 33 34 35 36 37 38 39 40 41 42 43 44 45 46 47 48 49 50
000
ASUS43 KDMX 251704
RWRIA

WEATHER ROUNDUP FOR IOWA
NATIONAL WEATHER SERVICE DES MOINES IA
  ISSUED BY NWS QUAD CITIES IA IL
1100 AM CST SUN JAN 25 2015

NOTE: "FAIR" INDICATES FEW OR NO CLOUDS BELOW 12,000 FEET WITH NO
SIGNIFICANT WEATHER AND/OR OBSTRUCTIONS TO VISIBILITY.

* - THESE STATIONS ARE NOT NWS STATIONS...THUS NOT UNDER NWS
QUALITY CONTROL.  THEY ALSO DO NOT REPORT WEATHER SUCH
AS PRECIPITATION OR FOG.

IAZ001>003-012>014-020>022-031>034-043>046-251800-
   NORTHWEST IOWA

CITY           SKY/WX    TMP DP  RH WIND       PRES   REMARKS
CARROLL *      CLOUDY    34  32  93 N21G28    29.93R WCI  22
CHEROKEE *     CLOUDY    33  32  96 N14       29.98R WCI  23
DENNISON *     CLOUDY    34  34 100 N12G20    29.93R WCI  25
LE MARS *      CLOUDY    36  34  93 N14       29.99R WCI  27
ORANGE CITY *  CLOUDY    36  30  80 N7        29.97R WCI  30
SIOUX CITY     CLOUDY    37  33  85 N14       29.99R WCI  28
SPENCER        CLOUDY    31  28  89 N16       29.98R WCI  20
$$

IAZ055>058-069>071-079>083-090>094-251800-
   SOUTHWEST IOWA

CITY           SKY/WX    TMP DP  RH WIND       PRES   REMARKS
ATLANTIC *     CLOUDY    34  34 100 N20G28    29.90R WCI  22
AUDUBON *      MOSUNNY   34  30  86 N17G24    29.92R WCI  23
CLARINDA *     CLOUDY    36  34  93 N22G30    29.88R WCI  24
COUNCIL BLFS * CLOUDY    36  36 100 N18G25    29.92R WCI  25
CRESTON *      LGT RAIN  34  34 100 N18G26    29.84R WCI  23
HARLAN *       CLOUDY    36  36 100 N21G29    29.96R WCI  24
LAMONI         LGT SNOW  34  33  96 N16G25    29.78R FOG     WCI  24
RED OAK *      MIX PCPN  36  34  93 N24G31    29.90R WCI  24
$$

IAZ047>049-059>061-072>074-084-251800-
   CENTRAL IOWA

CITY           SKY/WX    TMP DP  RH WIND       PRES   REMARKS
AMES           CLOUDY    33  30  88 NE16G23   29.89R WCI  23
ANKENY *       LGT SNOW  34  32  93 NE18G26   29.88R WCI  23
BOONE *        CLOUDY    34  34 100 NE18G25   29.88R WCI  23
CHARITON *     LGT SNOW  34  32  93 NE18G32   29.80R WCI  23
DES MOINES     LGT SNOW  35  31  85 NE18G32   29.86R FOG     WCI  24
GRINNELL *     LGT SNOW  30  28  92 NE17      29.84R WCI  18
KNOXVILLE *    LGT SNOW  32  30  93 NE15G25   29.81R WCI  22
MARSHALLTOWN   CLOUDY    31  28  89 NE20      29.87R WCI  19
PELLA *        HVY RAIN  32  31  98 NE16G22   29.85R WCI  21
PERRY *          N/A     35  34  96 N14       29.89R WCI  26
$$

IAZ004>006-015-016-023>025-035-036-251800-
   NORTH CENTRAL IOWA

CITY           SKY/WX    TMP DP  RH WIND       PRES   REMARKS
ALGONA *       CLOUDY    30  28  93 N16G22    29.96R WCI  19
CLARION *      CLOUDY    32  32 100 N18       29.93R WCI  20
ESTHERVILLE    CLOUDY    28  25  88 N15       29.97R WCI  16
FORT DODGE *   CLOUDY    32  28  86 N15G21    29.95R WCI  22
MASON CITY     CLOUDY    29  27  92 N15       29.95R WCI  18
WEBSTER CITY * CLOUDY    34  34 100 N20G26    29.90R WCI  22
IOWA FALLS *   CLOUDY    32  28  86 NE14      29.91R WCI  22
$$

IAZ007>011-017>019-026>030-037>042-050>054-066-251800-
   NORTHEAST IOWA

CITY           SKY/WX    TMP DP  RH WIND       PRES   REMARKS
CEDAR RAPIDS   LGT SNOW  28  26  92 NE20G29   29.83R VSB 1   WCI  15
CHARLES CITY * CLOUDY    28  27  93 NE17      29.92R WCI  16
CLINTON *      CLOUDY    28  27  93 NE23      29.83R WCI  14
DECORAH *      CLOUDY    27  19  74 NE12      29.91R WCI  16
DUBUQUE        CLOUDY    25  20  81 NE20G32   29.85R WCI  11
MONTICELLO *   PTSUNNY   28  25  86 NE20G28   29.86R WCI  15
OELWEIN *      CLOUDY    28  23  80 NE15G22   29.89R WCI  17
WATERLOO       CLOUDY    29  25  85 NE18      29.90R WCI  16
$$

IAZ064-065-067-068-078-251800-
   EAST CENTRAL IOWA

CITY           SKY/WX    TMP DP  RH WIND       PRES   REMARKS
DAVENPORT      LGT SNOW  29  25  85 NE22      29.80R VSB 1   WCI  15
IOWA CITY      LGT SNOW  30  28  92 NE17G26   29.83R VSB 3/4 WCI  18
MT. PLEASANT * LGT SNOW  32  32  99 NE18G30   29.75R VSB 1   WCI  20
MUSCATINE *    LGT SNOW  32  28  86 NE28      29.79R WCI  18
QUAD CITIES    LGT SNOW  30  26  85 NE18G31   29.79R VSB 1   WCI  18
$$

IAZ062-063-075>077-085>089-095>099-251800-
   SOUTHEAST IOWA

CITY           SKY/WX    TMP DP  RH WIND       PRES   REMARKS
BURLINGTON     LGT SNOW  32  32 100 NE22G30   29.72R FOG     WCI  19
FAIRFIELD *    LGT SNOW  32  28  86 NE24G31   29.77R WCI  19
FORT MADISON * LGT SNOW  34  34 100 NE17      29.72R WCI  23
KEOKUK *       LGT SNOW  34  34 100 NE9G20    29.70R WCI  26
OTTUMWA        LGT SNOW  32  31  96 NE16G30   29.79R FOG     WCI  21
WASHINGTON *   LGT SNOW  32  32 100 NE23      29.78R VSB 1   WCI  19
$$

ABBREVIATIONS USED IN REMARKS
   TC - TEMPERATURES IN CELSIUS
  WCI - WIND CHILL INDEX
   HX - HEAT INDEX
  VSB - VISIBILITY
$$



USA.gov is the U.S. government's official web portal to all federal, state and local government web resources and services.